FW3241 Weather Reports


time (UTC)temp
F
wind
direction
speed
knots
gust
knots
rain 1hr
in
rain 24hr
in
rain mn
in
humidity
%
barometer
mb
20260503034510 39 208 0.0 0.9 0.00 0.00 0.00 58 1018.3
20260503033018 39 208 0.0 0.9 0.00 0.00 0.00 57 1018.2
20260503031507 39 208 0.0 0.0 0.00 0.00 0.00 58 1018.1
20260503030005 39 208 0.0 0.0 0.00 0.00 0.00 58 1018.1
20260503024505 39 208 0.0 0.9 0.00 0.00 0.00 57 1018.1
20260503023003 39 208 0.0 0.0 0.00 0.00 0.00 57 1017.9
20260503021602 39 208 0.0 0.0 0.00 0.00 0.00 58 1017.8
20260503020100 40 208 0.0 0.0 0.00 0.00 0.00 58 1017.6
20260503014615 40 208 0.0 0.0 0.00 0.00 0.00 58 1017.4
20260503013057 40 208 0.0 0.0 0.00 0.00 0.00 57 1017.2
20260503011554 41 208 0.0 0.9 0.00 0.00 0.00 54 1017.1
20260503010053 42 208 0.0 0.0 0.00 0.00 0.00 52 1016.9
20260503004551 43 208 0.0 0.0 0.00 0.00 0.00 50 1016.6
20260503003056 44 208 0.0 0.0 0.00 0.00 0.00 49 1016.5
20260503001606 44 208 0.0 0.0 0.00 0.00 0.00 47 1016.2
20260503000050 45 208 0.0 0.0 0.00 0.00 0.00 45 1016.1
20260502234549 46 208 0.0 0.0 0.00 0.00 0.00 44 1015.8
20260502233045 46 208 0.0 0.9 0.00 0.00 0.00 44 1015.8
20260502231543 47 208 0.0 1.7 0.00 0.00 0.00 41 1015.5
20260502230042 49 143 0.0 1.7 0.00 0.00 0.00 39 1015.3
20260502224541 49 143 0.0 1.7 0.00 0.00 0.00 41 1015.2
20260502223041 47 143 0.0 2.6 0.00 0.00 0.00 43 1015.0
20260502221544 47 186 0.0 0.9 0.00 0.00 0.00 43 1015.0
20260502220040 47 84 0.9 2.6 0.00 0.00 0.00 42 1014.6
20260502214547 48 145 0.0 1.7 0.00 0.00 0.00 38 1014.3
20260502213040 50 145 0.0 0.9 0.00 0.00 0.00 39 1014.0
20260502211538 51 150 0.0 1.7 0.00 0.00 0.00 37 1013.8
20260502210043 52 150 0.0 1.7 0.00 0.00 0.00 37 1013.5
20260502204539 51 172 0.0 1.7 0.00 0.00 0.00 39 1013.6
20260502203038 52 253 0.0 0.9 0.00 0.00 0.00 35 1013.7
20260502201538 54 253 0.0 1.7 0.00 0.00 0.00 32 1013.5
20260502200036 54 253 0.0 1.7 0.00 0.00 0.00 35 1013.5
20260502194538 54 253 0.0 1.7 0.00 0.00 0.00 32 1013.7
20260502193040 54 253 0.0 1.7 0.00 0.00 0.00 37 1013.7
20260502191535 53 253 0.9 2.6 0.00 0.00 0.00 39 1014.1
20260502190041 53 253 0.9 2.6 0.00 0.00 0.00 33 1014.2
20260502184553 53 252 0.0 1.7 0.00 0.00 0.00 35 1014.3
20260502183032 54 252 0.0 1.7 0.00 0.00 0.00 34 1014.2
20260502181532 54 251 0.0 2.6 0.00 0.00 0.00 36 1014.2
20260502163014 48 281 0.0 1.7 0.00 0.00 0.00 41 1014.9
20260502161513 47 280 1.7 5.2 0.00 0.00 0.00 46 1015.0
20260502151510 44 31 0.0 1.7 0.00 0.00 0.00 52 1015.2
20260502123106 40 49 0.0 0.0 0.00 0.00 0.00 66 1014.7
20260502121558 40 49 0.0 0.0 0.00 0.00 0.00 68 1014.3
20260502114600 40 49 0.0 0.0 0.00 0.00 0.00 68 1013.9
20260502113056 40 49 0.0 0.0 0.00 0.00 0.00 69 1014.0
20260502111556 41 49 0.0 0.0 0.00 0.00 0.00 69 1013.7
20260502110059 41 49 0.0 0.0 0.00 0.00 0.00 68 1013.5
20260502104555 41 49 0.0 0.0 0.00 0.00 0.00 68 1013.6
20260502103058 41 49 0.0 0.0 0.00 0.00 0.00 69 1013.4
20260502101616 41 49 0.0 0.0 0.00 0.00 0.00 69 1013.2
20260502100114 41 49 0.0 0.0 0.00 0.00 0.00 69 1013.3
20260502071533 44 49 0.0 0.9 0.00 0.00 0.00 67 1014.0
20260502070044 44 49 0.0 0.0 0.00 0.00 0.00 67 1014.1
20260502064530 44 49 0.0 0.0 0.00 0.00 0.00 67 1014.0
20260502063033 44 49 0.0 0.0 0.00 0.00 0.00 66 1014.0
20260502061529 44 49 0.0 0.0 0.00 0.00 0.00 65 1013.9
20260502060028 45 49 0.0 0.9 0.00 0.00 0.00 65 1014.1
20260502054524 45 49 0.0 0.0 0.00 0.00 0.00 65 1014.5
20260502053024 45 49 0.0 0.0 0.00 0.00 0.00 65 1014.5
20260502051527 46 49 0.0 0.9 0.00 0.00 0.00 63 1014.6
20260502050020 46 49 0.0 0.9 0.00 0.00 0.00 61 1014.7
20260502044519 47 49 0.0 0.0 0.00 0.00 0.00 59 1014.7
20260502043016 47 49 0.0 0.0 0.00 0.00 0.00 56 1014.6
20260502041513 48 49 0.0 0.9 0.00 0.00 0.00 53 1014.6
20260502040010 49 49 0.0 0.0 0.00 0.00 0.00 52 1014.6